IRIDIUM 136

Last updated on Sun Jun 21 2026 00:03:14 GMT+0000 (Coordinated Universal Time)

1 42962U 17061H 26171.32337043 .00000166 00000+0 52337-4 0 9996 2 42962 86.3966 23.9454 0002249 92.8023 267.3430 14.34217235455282
UTC large
Height (km)
Speed (km/s)
/
Latitude / Longitude
Inclination (degrees)
Orbital Period (minutes)
Azimuth
Elevation
Range (km)
Doppler Factor

Next 0 passes for location: London (51.5072 / 0.1276)

No passes found over London.
IRIDIUM 136